TimeHST,TemperatureF,Dew PointF,Humidity,Sea Level PressureIn,VisibilityMPH,Wind Direction,Wind SpeedMPH,Gust SpeedMPH,PrecipitationIn,Events,Conditions,WindDirDegrees,DateUTC
12:53 AM,72.0,64.9,78,29.97,10.0,Calm,Calm,-,N/A,,Partly Cloudy,0,2013-12-05 10:53:00
1:53 AM,71.1,63.0,75,29.96,10.0,Calm,Calm,-,N/A,,Partly Cloudy,0,2013-12-05 11:53:00
2:53 AM,70.0,64.0,81,29.94,10.0,NNW,3.5,-,N/A,,Partly Cloudy,340,2013-12-05 12:53:00
3:53 AM,69.1,64.0,84,29.95,10.0,NNW,3.5,-,N/A,,Partly Cloudy,340,2013-12-05 13:53:00
4:53 AM,66.9,63.0,87,29.96,10.0,Calm,Calm,-,N/A,,Scattered Clouds,0,2013-12-05 14:53:00
5:53 AM,66.9,62.1,84,29.97,10.0,NNW,3.5,-,N/A,,Scattered Clouds,340,2013-12-05 15:53:00
6:53 AM,66.9,62.1,84,29.98,10.0,NW,3.5,-,N/A,,Scattered Clouds,310,2013-12-05 16:53:00
7:53 AM,70.0,62.1,76,30.00,10.0,North,5.8,-,N/A,,Scattered Clouds,360,2013-12-05 17:53:00
8:53 AM,75.0,63.0,66,30.01,10.0,NNW,3.5,-,N/A,,Mostly Cloudy,340,2013-12-05 18:53:00
9:53 AM,79.0,63.0,58,30.02,10.0,Calm,Calm,-,N/A,,Mostly Cloudy,0,2013-12-05 19:53:00
10:53 AM,80.1,63.0,56,30.01,10.0,South,5.8,-,N/A,,Mostly Cloudy,190,2013-12-05 20:53:00
11:53 AM,80.1,63.0,56,29.97,10.0,South,6.9,-,N/A,,Mostly Cloudy,180,2013-12-05 21:53:00
12:53 PM,80.1,63.0,56,29.94,10.0,South,8.1,-,N/A,,Mostly Cloudy,180,2013-12-05 22:53:00
1:53 PM,80.1,63.0,56,29.92,10.0,SSW,8.1,-,N/A,,Mostly Cloudy,210,2013-12-05 23:53:00
2:53 PM,78.1,63.0,60,29.92,10.0,SSW,6.9,-,N/A,,Mostly Cloudy,200,2013-12-06 00:53:00
3:00 PM,78.8,64.4,61,29.92,10.0,SSW,6.9,-,N/A,,Overcast,200,2013-12-06 01:00:00
3:53 PM,79.0,64.0,60,29.92,10.0,SSW,6.9,-,N/A,,Mostly Cloudy,200,2013-12-06 01:53:00
4:53 PM,79.0,64.0,60,29.93,10.0,South,5.8,-,N/A,,Mostly Cloudy,180,2013-12-06 02:53:00
5:53 PM,77.0,64.0,64,29.95,10.0,Calm,Calm,-,N/A,,Mostly Cloudy,0,2013-12-06 03:53:00
6:53 PM,77.0,64.0,64,29.96,10.0,Calm,Calm,-,N/A,,Mostly Cloudy,0,2013-12-06 04:53:00
7:53 PM,73.9,64.9,73,29.98,10.0,NE,4.6,-,N/A,,Partly Cloudy,50,2013-12-06 05:53:00
8:53 PM,73.9,64.0,71,30.00,10.0,Calm,Calm,-,N/A,,Partly Cloudy,0,2013-12-06 06:53:00
9:53 PM,73.9,64.0,71,30.01,10.0,Calm,Calm,-,N/A,,Scattered Clouds,0,2013-12-06 07:53:00
10:53 PM,73.0,64.9,76,30.01,10.0,Calm,Calm,-,N/A,,Scattered Clouds,0,2013-12-06 08:53:00
11:53 PM,72.0,64.9,78,29.99,10.0,NNW,3.5,-,N/A,,Partly Cloudy,340,2013-12-06 09:53:00